Location: Newark
(35.2672°N, 80.7344°W)
Time: 13:00:47
(UTC+00:00)

Vanguard 2 Rocket - Pass Details

Date: 22 January 2020
Orbit: 553 x 3327 km, 32.9° (Epoch: 24 February)

Event Time Altitude Azimuth Distance (km) Brightness Sun altitude
Rises 19:05:03 0° 267° (W) 5,618 11.3 31.0°
Reaches altitude 10° 19:10:35 10° 249° (WSW) 5,124 11.5 30.5°
Maximum altitude 19:18:49 16° 216° (SW) 5,176 12.7 29.8°
Drops below altitude 10° 19:28:36 10° 185° (S) 6,153 12.3 28.8°
Sets 19:36:47 0° 168° (SSE) 7,302 12.1 27.9°
